TimeEDT,TemperatureF,Dew PointF,Humidity,Sea Level PressureIn,VisibilityMPH,Wind Direction,Wind SpeedMPH,Gust SpeedMPH,PrecipitationIn,Events,Conditions,WindDirDegrees,DateUTC
12:15 AM,46.4,24.8,43,30.24,10.0,WNW,3.5,-,N/A,,Clear,290,2013-03-15 04:15:00
12:35 AM,44.6,28.4,53,30.24,10.0,Calm,Calm,-,N/A,,Scattered Clouds,0,2013-03-15 04:35:00
12:55 AM,44.6,30.2,57,30.24,10.0,Calm,Calm,-,N/A,,Mostly Cloudy,0,2013-03-15 04:55:00
1:15 AM,44.6,30.2,57,30.24,10.0,Calm,Calm,-,N/A,,Mostly Cloudy,0,2013-03-15 05:15:00
1:35 AM,44.6,32.0,61,30.23,10.0,Calm,Calm,-,N/A,,Clear,0,2013-03-15 05:35:00
1:55 AM,42.8,30.2,61,30.23,10.0,Calm,Calm,-,N/A,,Clear,0,2013-03-15 05:55:00
2:15 AM,41.0,30.2,65,30.23,10.0,Calm,Calm,-,N/A,,Clear,0,2013-03-15 06:15:00
2:35 AM,41.0,30.2,65,30.23,10.0,Calm,Calm,-,N/A,,Clear,0,2013-03-15 06:35:00
2:55 AM,44.6,26.6,49,30.23,10.0,West,4.6,-,N/A,,Clear,280,2013-03-15 06:55:00
3:15 AM,44.6,26.6,49,30.24,10.0,WNW,4.6,-,N/A,,Clear,290,2013-03-15 07:15:00
3:35 AM,44.6,26.6,49,30.24,10.0,WNW,4.6,-,N/A,,Clear,300,2013-03-15 07:35:00
3:55 AM,42.8,28.4,57,30.24,10.0,West,3.5,-,N/A,,Clear,270,2013-03-15 07:55:00
4:15 AM,42.8,28.4,57,30.23,10.0,Calm,Calm,-,N/A,,Scattered Clouds,0,2013-03-15 08:15:00
4:35 AM,41.0,28.4,61,30.22,10.0,Calm,Calm,-,N/A,,Clear,0,2013-03-15 08:35:00
4:55 AM,42.8,30.2,61,30.23,10.0,Calm,Calm,-,N/A,,Clear,0,2013-03-15 08:55:00
5:15 AM,41.0,30.2,65,30.23,10.0,Calm,Calm,-,N/A,,Clear,0,2013-03-15 09:15:00
5:35 AM,39.2,30.2,70,30.24,10.0,Calm,Calm,-,N/A,,Clear,0,2013-03-15 09:35:00
5:55 AM,37.4,30.2,75,30.24,10.0,Calm,Calm,-,N/A,,Clear,0,2013-03-15 09:55:00
6:15 AM,37.4,32.0,81,30.24,10.0,Calm,Calm,-,N/A,,Clear,0,2013-03-15 10:15:00
6:35 AM,37.4,30.2,75,30.24,10.0,Calm,Calm,-,N/A,,Clear,0,2013-03-15 10:35:00
6:55 AM,35.6,30.2,81,30.24,10.0,Calm,Calm,-,N/A,,Clear,0,2013-03-15 10:55:00
7:15 AM,35.6,32.0,87,30.24,10.0,Calm,Calm,-,N/A,,Clear,0,2013-03-15 11:15:00
7:35 AM,35.6,32.0,87,30.24,10.0,Calm,Calm,-,N/A,,Clear,0,2013-03-15 11:35:00
7:55 AM,35.6,32.0,87,30.24,10.0,Calm,Calm,-,N/A,,Clear,0,2013-03-15 11:55:00
8:15 AM,35.6,32.0,87,30.24,10.0,Calm,Calm,-,N/A,,Clear,0,2013-03-15 12:15:00
8:35 AM,37.4,33.8,87,30.24,10.0,Calm,Calm,-,N/A,,Clear,0,2013-03-15 12:35:00
8:55 AM,41.0,35.6,81,30.24,10.0,Calm,Calm,-,N/A,,Clear,0,2013-03-15 12:55:00
9:15 AM,44.6,32.0,61,30.25,10.0,Calm,Calm,-,N/A,,Clear,0,2013-03-15 13:15:00
9:35 AM,48.2,32.0,54,30.24,10.0,Calm,Calm,-,N/A,,Clear,0,2013-03-15 13:35:00
10:15 AM,51.8,35.6,54,30.24,10.0,Calm,Calm,-,N/A,,Clear,0,2013-03-15 14:15:00
10:35 AM,53.6,35.6,51,30.24,10.0,Calm,Calm,-,N/A,,Clear,0,2013-03-15 14:35:00
11:55 AM,64.4,32.0,30,30.20,10.0,Calm,Calm,-,N/A,,Clear,0,2013-03-15 15:55:00
12:15 PM,64.4,32.0,30,30.19,10.0,WNW,5.8,-,N/A,,Clear,300,2013-03-15 16:15:00
12:35 PM,68.0,32.0,26,30.19,10.0,WNW,6.9,-,N/A,,Clear,300,2013-03-15 16:35:00
12:55 PM,68.0,32.0,26,30.18,10.0,WNW,9.2,-,N/A,,Clear,290,2013-03-15 16:55:00
1:15 PM,69.8,33.8,27,30.17,10.0,WSW,3.5,-,N/A,,Clear,240,2013-03-15 17:15:00
1:35 PM,69.8,33.8,27,30.15,10.0,WNW,6.9,-,N/A,,Clear,290,2013-03-15 17:35:00
1:55 PM,71.6,33.8,25,30.14,10.0,WSW,3.5,-,N/A,,Clear,250,2013-03-15 17:55:00
2:15 PM,71.6,33.8,25,30.13,10.0,Calm,Calm,-,N/A,,Clear,0,2013-03-15 18:15:00
2:35 PM,71.6,35.6,27,30.11,10.0,SW,3.5,-,N/A,,Clear,220,2013-03-15 18:35:00
3:15 PM,73.4,35.6,25,30.09,10.0,South,4.6,-,N/A,,Clear,190,2013-03-15 19:15:00
3:35 PM,73.4,35.6,25,30.07,10.0,West,5.8,-,N/A,,Clear,260,2013-03-15 19:35:00
4:15 PM,75.2,35.6,24,30.06,10.0,SW,3.5,-,N/A,,Clear,230,2013-03-15 20:15:00
4:35 PM,75.2,35.6,24,30.05,10.0,West,6.9,-,N/A,,Clear,280,2013-03-15 20:35:00
4:55 PM,75.2,35.6,24,30.04,10.0,West,5.8,-,N/A,,Clear,270,2013-03-15 20:55:00
5:15 PM,75.2,35.6,24,30.03,10.0,WSW,4.6,-,N/A,,Clear,240,2013-03-15 21:15:00
5:35 PM,75.2,37.4,25,30.03,10.0,West,5.8,-,N/A,,Clear,270,2013-03-15 21:35:00
5:55 PM,75.2,37.4,25,30.02,10.0,Calm,Calm,-,N/A,,Clear,0,2013-03-15 21:55:00
6:15 PM,73.4,37.4,27,30.02,10.0,West,5.8,-,N/A,,Clear,280,2013-03-15 22:15:00
6:35 PM,73.4,37.4,27,30.02,10.0,Calm,Calm,-,N/A,,Clear,0,2013-03-15 22:35:00
6:55 PM,71.6,39.2,31,30.01,10.0,Calm,Calm,-,N/A,,Clear,0,2013-03-15 22:55:00
7:15 PM,69.8,39.2,33,30.02,10.0,Calm,Calm,-,N/A,,Clear,0,2013-03-15 23:15:00
7:35 PM,69.8,39.2,33,30.02,10.0,Calm,Calm,-,N/A,,Clear,0,2013-03-15 23:35:00
7:55 PM,68.0,39.2,35,30.02,10.0,Calm,Calm,-,N/A,,Clear,0,2013-03-15 23:55:00
8:15 PM,64.4,41.0,42,30.02,10.0,Calm,Calm,-,N/A,,Clear,0,2013-03-16 00:15:00
8:35 PM,62.6,41.0,45,30.02,10.0,Calm,Calm,-,N/A,,Clear,0,2013-03-16 00:35:00
8:55 PM,62.6,41.0,45,30.03,10.0,Calm,Calm,-,N/A,,Clear,0,2013-03-16 00:55:00
9:15 PM,60.8,42.8,52,30.03,10.0,Calm,Calm,-,N/A,,Clear,0,2013-03-16 01:15:00
9:35 PM,59.0,42.8,55,30.03,10.0,Calm,Calm,-,N/A,,Clear,0,2013-03-16 01:35:00
9:55 PM,59.0,42.8,55,30.04,10.0,Calm,Calm,-,N/A,,Clear,0,2013-03-16 01:55:00
10:15 PM,59.0,42.8,55,30.04,10.0,Calm,Calm,-,N/A,,Clear,0,2013-03-16 02:15:00
10:35 PM,57.2,42.8,59,30.04,10.0,Calm,Calm,-,N/A,,Clear,0,2013-03-16 02:35:00
10:55 PM,57.2,42.8,59,30.04,10.0,Calm,Calm,-,N/A,,Clear,0,2013-03-16 02:55:00
11:15 PM,55.4,42.8,63,30.04,10.0,Calm,Calm,-,N/A,,Clear,0,2013-03-16 03:15:00
11:35 PM,55.4,42.8,63,30.03,10.0,Calm,Calm,-,N/A,,Clear,0,2013-03-16 03:35:00
11:55 PM,55.4,42.8,63,30.03,10.0,Calm,Calm,-,N/A,,Clear,0,2013-03-16 03:55:00